DW6536 Weather Reports


time (UTC)temp
C
wind
direction
speed
KPH
gust
KPH
rain 1hr
cm
rain 24hr
cm
rain mn
cm
humidity
%
barometer
mb
20260505121546 21 181 3.2 0.0 0.00 0.00 0.00 86 1004.8
20260505120046 20 209 3.2 0.0 0.00 0.00 0.00 86 1004.6
20260505114546 20 237 3.2 0.0 0.00 0.00 0.00 86 1004.5
20260505113044 20 224 3.2 0.0 0.00 0.00 0.00 86 1004.6
20260505111552 20 230 3.2 0.0 0.00 0.00 0.00 86 1004.4
20260505101540 21 110 3.2 0.0 0.00 0.00 0.00 85 1004.7
20260505100048 21 135 1.6 0.0 0.00 0.00 0.00 85 1005.0
20260505094539 21 188 3.2 0.0 0.00 0.00 0.00 85 1004.8
20260505093039 21 198 3.2 0.0 0.00 0.00 0.00 85 1005.0
20260505091551 21 179 1.6 0.0 0.00 0.00 0.00 85 1004.9
20260505090050 21 234 3.2 0.0 0.00 0.00 0.00 85 1005.3
20260505084537 21 213 3.2 0.0 0.00 0.00 0.00 85 1005.2
20260505083040 21 208 4.8 0.0 0.00 0.00 0.00 84 1005.3
20260505081548 21 214 3.2 0.0 0.00 0.00 0.00 84 1005.5
20260505080038 21 193 3.2 0.0 0.00 0.00 0.00 84 1005.6
20260505074526 21 214 3.2 0.0 0.00 0.00 0.00 83 1005.9
20260505073025 21 168 3.2 0.0 0.00 0.00 0.00 83 1006.0
20260505071527 21 193 4.8 0.0 0.00 0.00 0.00 83 1006.2
20260505070121 21 224 3.2 0.0 0.00 0.00 0.00 83 1006.4
20260505064518 21 203 3.2 0.0 0.00 0.00 0.00 83 1006.6
20260505063016 21 199 4.8 0.0 0.00 0.00 0.00 83 1006.7
20260505061524 21 218 4.8 0.0 0.00 0.00 0.00 83 1006.9
20260505060011 21 101 1.6 0.0 0.00 0.00 0.00 82 1007.0
20260505054518 21 105 3.2 0.0 0.00 0.00 0.00 82 1006.9
20260505053011 21 249 3.2 0.0 0.00 0.00 0.00 82 1006.9
20260505051509 21 225 3.2 0.0 0.00 0.00 0.00 82 1006.9
20260505041505 22 221 4.8 0.0 0.00 0.00 0.00 80 1006.8
20260505040005 22 203 4.8 0.0 0.00 0.00 0.00 79 1006.7
20260505034504 22 163 4.8 0.0 0.00 0.00 0.00 79 1006.8
20260505033004 22 190 3.2 0.0 0.00 0.00 0.00 78 1006.7
20260505031503 22 172 3.2 0.0 0.00 0.00 0.00 77 1006.7
20260505030003 23 180 3.2 0.0 0.00 0.00 0.00 76 1006.8
20260505024508 23 170 3.2 0.0 0.00 0.00 0.00 76 1006.7
20260505023002 23 209 3.2 0.0 0.00 0.00 0.00 75 1006.7
20260505021504 23 256 3.2 0.0 0.00 0.00 0.00 73 1006.6
20260505020001 23 122 3.2 0.0 0.00 0.00 0.00 71 1006.5
20260505014601 23 133 1.6 0.0 0.00 0.00 0.00 70 1006.5
20260505013103 24 103 3.2 0.0 0.00 0.00 0.00 69 1006.6
20260505011600 24 244 1.6 0.0 0.00 0.00 0.00 68 1006.5
20260505010100 25 170 3.2 0.0 0.00 0.00 0.00 67 1006.5
20260505004605 25 76 3.2 0.0 0.00 0.00 0.00 66 1006.5
20260505003058 25 207 3.2 0.0 0.00 0.00 0.00 64 1006.4
20260505001558 25 292 3.2 0.0 0.00 0.00 0.00 64 1006.3
20260505000058 26 210 3.2 0.0 0.00 0.00 0.00 63 1006.2
20260504234555 26 172 4.8 0.0 0.00 0.00 0.00 62 1006.5
20260504233100 26 122 4.8 0.0 0.00 0.00 0.00 63 1006.7
20260504231553 26 87 4.8 0.0 0.00 0.00 0.00 62 1006.6
20260504230052 27 172 4.8 0.0 0.00 0.00 0.00 61 1006.8
20260504224550 27 230 4.8 0.0 0.00 0.00 0.00 60 1007.0
20260504223054 28 149 4.8 0.0 0.00 0.00 0.00 58 1007.2
20260504221558 28 110 4.8 0.0 0.00 0.00 0.00 59 1007.1
20260504220108 28 145 3.2 0.0 0.00 0.00 0.00 58 1007.3
20260504214548 28 170 4.8 0.0 0.00 0.00 0.00 57 1007.3
20260504213050 27 125 4.8 0.0 0.00 0.00 0.00 60 1007.5
20260504211542 27 110 4.8 0.0 0.00 0.00 0.00 59 1008.0
20260504210041 27 180 4.8 0.0 0.00 0.00 0.00 61 1008.2
20260504204556 26 145 6.4 0.0 0.00 0.00 0.00 63 1008.5
20260504203038 26 222 3.2 0.0 0.00 0.00 0.00 61 1008.6
20260504201536 27 118 6.4 0.0 0.00 0.00 0.00 61 1009.0
20260504200042 27 193 4.8 0.0 0.00 0.00 0.00 60 1009.2
20260504194538 27 118 4.8 0.0 0.00 0.00 0.00 59 1009.6
20260504193031 27 185 4.8 0.0 0.00 0.00 0.00 60 1009.7
20260504191530 27 122 3.2 0.0 0.00 0.00 0.00 59 1009.8
20260504190030 27 170 3.2 0.0 0.00 0.00 0.00 62 1010.3
20260504184532 27 289 3.2 0.0 0.00 0.00 0.00 60 1010.3
20260504183021 26 216 4.8 0.0 0.00 0.00 0.00 63 1010.6
20260504181517 26 117 3.2 0.0 0.00 0.00 0.00 64 1011.1
20260504180017 26 170 3.2 0.0 0.00 0.00 0.00 62 1011.1
20260504174512 25 105 4.8 0.0 0.00 0.00 0.00 65 1011.4
20260504173010 23 231 3.2 0.0 0.00 0.00 0.00 68 1011.7
20260504171507 23 164 3.2 0.0 0.00 0.00 0.00 66 1012.1
20260504160106 23 243 3.2 0.0 0.00 0.00 0.00 68 1012.7